铱星星座 110星 (IRIDIUM 110)

导读

IRIDIUM 110(铱星110)是美国铱星通信公司运营的低轨通信卫星,属于第二代铱星星座(Iridium NEXT),于2018年5月22日发射升空。该卫星运行在近地轨道,是全球覆盖低轨卫星通信网络的组成部分,主要为全球提供语音通话、数据传输服务,在航海、航空、应急救援以及偏远地区通信领域发挥关键作用。作为铱星系统升级换代的卫星之一,它提升了原有网络通信性能与可靠性,保障了星座的持续运营能力。

基本信息
目录编号:
43481
目录名称:
IRIDIUM 110
国际标识:
2018-047F
轨道中心:
EARTH
卫星名称:
铱星星座 110星
卫星全名:
铱星星座 110星 (IRIDIUM 110)
卫星状态:
在轨 (已飞行3034 天)
发射日期:
2018-05-22 UTC
国别 :
美国 (US)
星等 :
--
轨道信息
数据来源 国际轨道数据 AOE轨道数据
星历时间 2026-09-10T20:16:06+0800
14小时前
查看轨道信息
2026-09-10T12:00:00+0800
22小时前
查看轨道信息
半长轴 7155.806km 7155.801km
偏心率 0.0002278 0.0002336
轨道倾角 86.393° 86.396°
近地点辐角 97.108° 94.359°
升交点赤经 52.726° 52.871°
平近点角 263.037° 288.102°
近地点 776.038km 775.992km
远地点 779.3km 779.336km
周期 100.403分钟 100.403分钟
每日圈数 14.342173 14.342188
详细信息
平衡模式:
三轴稳定
覆盖范围:
全球
运营商:
铱星通信公司
运营商所在国:
美国
制造商(研发单位):
阿莱尼亚宇航公司
制造商所在国:
意大利
使用方式:
暂无
卫星简介
铱星(Iridium)是由共66个运作中的通信卫星组成的卫星通信系统。这个系统原本规划77个通信卫星,所以用原子序数为77的铱元素来命名。铱卫星允许人们使用手持型电子设备进行全球性的语音及数据通讯。该卫星仍在工作。
2D轨道图
3D轨道图
轨道高度分析图
轨道倾角分析图
轨道综合分析图
查看轨道综合分析图
交会数据列表
事件ID 空间交会对象 最接近时刻(TCA) 交会距离 交会风险概率(CRP) 交会风险指数(CRI) 操作
CDM_260904-025403-365604-348124
2026-09-04T
02:54:07+0000
1.491 km
极远距离
6.886169E-6 低风险 0.52
CDM_260911-053604-348105-716523
SL-8 DEB (57165)
2026-09-11T
05:36:45+0000
2.179 km
极远距离
2.2821E-6 低风险 0.42
CDM_260911-034703-028404-348127
2026-09-11T
03:47:54+0000
2.450 km
极远距离
1.454669E-6 低风险 0.38
CDM_260911-025202-996604-348123
2026-09-11T
02:52:10+0000
2.414 km
极远距离
1.415002E-6 低风险 0.38
与全量物体交会距离演化趋势
与全量物体交会风险概率演化趋势